This is the latest recevied weather packets stored in our database for station/object KN6ETB-1. If no packets are shown the sender has not sent any weather packets the latest 10 day(s).
| Time | Temp. | Humidity | Pressure | Rain* | Wind** | Luminosity | Snow |
|---|---|---|---|---|---|---|---|
| 1778022868 | 18.33° C | 73% | 1012.4 hPa | 0 mm | - | 362 W/m² | - |
| 1778022566 | 17.78° C | 73% | 1012.4 hPa | 0 mm | - | 203 W/m² | - |
| 1778022264 | 18.33° C | 73% | 1012.6 hPa | 0 mm | - | 165 W/m² | - |
| 1778021960 | 17.78° C | 73% | 1012.4 hPa | 0 mm | - | 139 W/m² | - |
| 1778021657 | 18.33° C | 73% | 1012.6 hPa | 0 mm | - | 135 W/m² | - |
| 1778021352 | 18.33° C | 73% | 1012.4 hPa | 0 mm | - | 157 W/m² | - |
| 1778021050 | 18.33° C | 73% | 1012.4 hPa | 0 mm | - | 194 W/m² | - |
| 1778020747 | 18.89° C | 71% | 1012.5 hPa | 0 mm | - | 193 W/m² | - |
| 1778020444 | 18.89° C | 72% | 1012.5 hPa | 0 mm | - | 180 W/m² | - |
| 1778020140 | 18.89° C | 71% | 1012.5 hPa | 0 mm | - | 169 W/m² | - |
| 1778019836 | 18.89° C | 71% | 1012.5 hPa | 0 mm | - | 160 W/m² | - |
| 1778019533 | 18.89° C | 71% | 1012.7 hPa | 0 mm | - | 176 W/m² | - |
| 1778019230 | 18.33° C | 71% | 1012.7 hPa | 0 mm | - | 300 W/m² | - |
| 1778018927 | 18.33° C | 72% | 1012.9 hPa | 0 mm | - | 285 W/m² | - |
| 1778018624 | 18.89° C | 70% | 1012.8 hPa | 0 mm | - | 267 W/m² | - |
| 1778018322 | 18.33° C | 72% | 1012.8 hPa | 0 mm | - | 313 W/m² | - |
| 1778018020 | 18.33° C | 72% | 1012.8 hPa | 0 mm | - | 329 W/m² | - |
| 1778017717 | 18.33° C | 73% | 1012.8 hPa | 0 mm | - | 319 W/m² | - |
| 1778017415 | 18.33° C | 74% | 1012.7 hPa | 0 mm | - | 319 W/m² | - |
| 1778017111 | 18.89° C | 72% | 1012.9 hPa | 0 mm | - | 260 W/m² | - |
| 1778016810 | 18.33° C | 75% | 1012.9 hPa | 0 mm | - | 228 W/m² | - |
| 1778016505 | 17.78° C | 75% | 1012.9 hPa | 0 mm | - | 191 W/m² | - |
| 1778016203 | 18.33° C | 74% | 1012.8 hPa | 0 mm | - | 150 W/m² | - |
| 1778015898 | 18.33° C | 71% | 1012.9 hPa | 0 mm | - | 130 W/m² | - |
| 1778015596 | 18.33° C | 71% | 1012.9 hPa | 0 mm | - | 168 W/m² | - |
* Rain latest hour (hover to see other rain measurements)
** Current wind speed in m/s (hover to see current wind gust speed)